{"data":{"norad_id":53681,"epoch":"2026-08-20T02:31:14.570400Z","epoch_age_seconds":2794225,"freshness":"OLD","line1":"1 53681U 22105AK  26232.10502975  .08906939  26773-5  20764-3 0  9993","line2":"2 53681  97.5661 123.2889 0009482 274.0967  85.9251 16.45745510218593","mean_motion":16.4574551,"eccentricity":0.0009482,"inclination_deg":97.5661,"raan_deg":123.2889,"arg_perigee_deg":274.0967,"mean_anomaly_deg":85.9251,"bstar":0.00020764,"rev_number":21859,"period_min":87.498339886098,"perigee_km":144.37262539294,"apogee_km":156.75365233628,"semimajor_km":6528.7001388646,"source":"CELESTRAK","updated_at":"2026-08-20T09:00:37.417125Z"}}